This demonstration page uses our WeatherBlox Daily Observations layout. Learn more.

Left ArrowRight Arrow

Hourly Observations for May 9, 2018

Temp ( °F °C ) Dew Point ( °F °C ) Humidity (%) Winds ( mph kmh ) Pressure ( in mb ) Visibility ( mi km ) Precip ( " mm )
1:53 am 01:53 Clear 45 7.2 42 5.6 90 90 SW 5 7 29.98 1015 10 16 N/A
2:53 am 02:53 Clear 45 7.2 42 5.6 90 90 W 3 6 30.01 1016 10 16 N/A
3:53 am 03:53 Clear 45 7.2 42 5.6 90 90 WSW 5 7 29.99 1016 10 16 N/A
4:53 am 04:53 Clear 44 6.7 42 5.6 93 93 SSW 9 15 29.99 1016 10 16 N/A
5:53 am 05:53 Sunny 41 5 39 3.9 93 93 WSW 5 7 30.00 1016 10 16 N/A
6:53 am 06:53 Sunny 45 7.2 43 6.1 93 93 N N/A 30.00 1016 10 16 N/A
7:53 am 07:53 Sunny 51 10.6 47 8.3 86 86 N N/A 30.00 1016 10 16 N/A
8:53 am 08:53 Sunny 58 14.4 47 8.3 67 67 NE 3 6 29.99 1016 10 16 N/A
9:53 am 09:53 Sunny 61 16.1 47 8.3 60 60 SE 3 6 29.99 1016 10 16 N/A
10:53 am 10:53 Sunny 67 19.4 48 8.9 51 51 E 3 6 29.98 1015 10 16 N/A
11:53 am 11:53 Sunny 68 20 46 7.8 45 45 ENE 13 20 29.97 1015 10 16 N/A
12:53 pm 12:53 Sunny 71 21.7 45 7.2 39 39 E 12 19 29.95 1014 10 16 N/A
1:53 pm 13:53 Sunny 71 21.7 41 5 34 34 E 16 26 29.94 1014 10 16 N/A
2:53 pm 14:53 Mostly Cloudy 71 21.7 38 3.3 30 30 ESE 12 19 29.93 1014 10 16 N/A
3:53 pm 15:53 Cloudy 68 20 49 9.4 51 51 E 20 31 29.93 1013 10 16 N/A
4:53 pm 16:53 Cloudy 67 19.4 49 9.4 53 53 ESE 22 35 29.92 1013 10 16 N/A
5:53 pm 17:53 Mostly Cloudy 66 18.9 48 8.9 52 52 E 25 41 29.92 1013 10 16 N/A
6:53 pm 18:53 Mostly Cloudy 64 17.8 47 8.3 54 54 E 22 35 29.92 1013 10 16 N/A
7:53 pm 19:53 Cloudy 62 16.7 40 4.4 44 44 E 26 43 29.92 1013 10 16 N/A
8:53 pm 20:53 Cloudy 60 15.6 38 3.3 44 44 E 25 41 29.91 1013 10 16 N/A
9:53 pm 21:53 Clear 57 13.9 34 1.1 42 42 E 23 37 29.92 1013 10 16 N/A

Powered by AerisWeather